Location: Bagong Pook
(14.2541°N, 120.8791°E)
Time: 01:48:35
(UTC+00:00)

CZ-2D R/B - Pass Details

Date: 13 January 2026
Orbit: 526 x 595 km, 98.0° (Epoch: 16 February)

Event Time Altitude Azimuth Distance (km) Brightness Sun altitude
Rises 10:28:04 0° 159° (SSE) 2,731 6.9 -10.4°
Reaches altitude 10° 10:30:15 10° 154° (SSE) 1,826 5.9 -10.9°
Maximum altitude 10:34:05 52° 77° (ENE) 682 3.4 -11.7°
Drops below altitude 10° 10:37:51 10° 1° (N) 1,790 5.7 -12.6°
Sets 10:39:58 0° 356° (N) 2,672 6.7 -13.1°
